Location: Treviso
(45.6669°N, 12.2430°E)
Time: 09:38:11
(UTC+02:00)

ISS - Pass Details

Date: 27 May 2023
Orbit: 412 x 419 km, 51.6° (Epoch: 30 May)

Event Time Altitude Azimuth Distance (km) Brightness Sun altitude
Rises 23:35:53 0° 284° (WNW) 2,357 0.6 -19.8°
Reaches altitude 10° 23:39:00 10° 252° (WSW) 1,490 -0.9 -20.0°
Enters shadow 23:39:22 11° 246° (WSW) 1,436 -1.1 -20.0°
